Meteo Giornale » Osservazioni meteo Canada » Kingston Ont
ore: 21:00 - Osservazioni Meteo Kingston Ont
Lat. 44° 13' N Lon. 76° 36' W Alt. 93 metri s.l.m.
21 °C
Coperto
Temp. 24 Ore
14 °C
22 °C
Sud/Sud-Est
11.1 Km/h
Dew point 19 °C
Umidità 88 %
Visibilità 24 Km
Il sole sorge alle ore 06:28
Il sole tramonta alle ore 19:44
| Data e Ora | Cielo e Fenomeni | T °C | DP °C | Um. % | Pres. hPa | Vis. km | Vento km/h | |
|---|---|---|---|---|---|---|---|---|
| Oggi h: 21:00 | Coperto | 21 | 19 | 88 | 1017 | 24 | S/SE 11.1 | |
| Oggi h: 20:00 | Coperto | 21 | 19 | 88 | 1017 | 24 | S 13 | |
| Oggi h: 19:00 | Coperto | 21 | 19 | 88 | 1017 | 24 | S 14.8 | |
| Oggi h: 18:00 | Coperto | 22 | 19 | 83 | 1017 | 24 | S/SE 16.7 | |
| Oggi h: 17:00 | Coperto | 22 | 18 | 78 | 1017 | 24 | S/SE 18.5 | |
| Oggi h: 16:00 | Coperto | 22 | 19 | 83 | 1018 | 19 | S 14.8 | |
| Oggi h: 15:00 | Molto Nuvoloso | 22 | 18 | 78 | 1018 | 19 | S/SE 20.3 | |
| Oggi h: 14:00 | Molto Nuvoloso | 22 | 19 | 83 | 1018 | 19 | S/SE 18.5 | |
| Oggi h: 13:00 | Coperto | 22 | 20 | 88 | 1019 | 19 | S/SE 14.8 | |
| Oggi h: 12:00 | Coperto | 21 | 19 | 88 | 1019 | 10 | S/SE 16.7 | |
| Oggi h: 11:00 | Coperto | 21 | 19 | 88 | 1019 | 19 | S 14.8 | |
| Oggi h: 10:45 | Molto Nuvoloso | 21 | 19 | 88 | 1019 | 10 | S/SE 16.7 | |
| Oggi h: 10:00 | Foschia | 20 | 20 | 100 | 1019 | 8 | S/SE 7.4 | |
| Oggi h: 09:40 | Foschia | 20 | 20 | 100 | 1019 | 8 | N 5.5 | |
| Oggi h: 09:00 | Foschia | 19 | 19 | 100 | 1019 | 3 | N 5.5 | |
| Oggi h: 08:30 | Foschia | 18 | 18 | 100 | 1019 | 3 | E/NE 7.4 | |
| Oggi h: 08:15 | Foschia | 17 | 17 | 100 | 1019 | 5 | N 3.7 | |
| Oggi h: 08:00 | Foschia | 17 | 17 | 100 | 1019 | 5 | N 3.7 | |
| Oggi h: 07:33 | Foschia | 16 | 16 | 100 | 1019 | 3 | N 0 | |
| Oggi h: 07:05 | Foschia | 16 | 16 | 100 | 1019 | 2 | N 5.5 | |
| Oggi h: 07:00 | Nebbia | 15 | 15 | 100 | 1019 | 2 | NE 7.4 | |
| Oggi h: 06:00 | Nebbia | 14 | 14 | 100 | 1019 | 2 | N 0 | |
| Ieri h: 23:00 | Nuvoloso | 19 | 18 | 93 | 1019 | 24 | N 5.5 | |



